This is the latest recevied weather packets stored in our database for station/object N1UNH. If no packets are shown the sender has not sent any weather packets the latest 10 day(s).
| Time | Temp. | Humidity | Pressure | Rain* | Wind** | Luminosity | Snow |
|---|---|---|---|---|---|---|---|
| 1777812038 | 5° C | 93% | 1012.8 hPa | 0 mm | - | 66 W/m² | - |
| 1777811737 | 4.44° C | 93% | 1012.7 hPa | 0 mm | - | 63 W/m² | - |
| 1777811432 | 4.44° C | 93% | 1012.8 hPa | 0 mm | - | 52 W/m² | - |
| 1777811129 | 4.44° C | 93% | 1012.7 hPa | 0 mm | - | 47 W/m² | - |
| 1777810827 | 4.44° C | 94% | 1013.1 hPa | 0 mm | - | 44 W/m² | - |
| 1777810523 | 4.44° C | 94% | 1012.8 hPa | 0 mm | - | 33 W/m² | - |
| 1777810220 | 4.44° C | 94% | 1012.7 hPa | 0 mm | - | 26 W/m² | - |
| 1777809916 | 4.44° C | 93% | 1013 hPa | 0 mm | - | 20 W/m² | - |
| 1777809615 | 4.44° C | 93% | 1012.9 hPa | 0 mm | - | 22 W/m² | - |
| 1777809312 | 5° C | 93% | 1013.1 hPa | 1.78 mm | - | 28 W/m² | - |
| 1777809009 | 5° C | 92% | 1013 hPa | 1.78 mm | - | 28 W/m² | - |
| 1777808706 | 5° C | 92% | 1012.8 hPa | 0 mm | - | 38 W/m² | - |
| 1777808403 | 5° C | 92% | 1012.9 hPa | 0 mm | - | 51 W/m² | - |
| 1777808101 | 5° C | 93% | 1012.7 hPa | 0 mm | - | 75 W/m² | - |
| 1777807798 | 5° C | 94% | 1012.9 hPa | 0 mm | - | 86 W/m² | - |
| 1777807496 | 4.44° C | 94% | 1013 hPa | 0 mm | - | 106 W/m² | - |
| 1777807192 | 4.44° C | 95% | 1012.8 hPa | 0 mm | - | 77 W/m² | - |
| 1777806889 | 4.44° C | 95% | 1013 hPa | 0 mm | - | 53 W/m² | - |
| 1777806585 | 4.44° C | 95% | 1012.6 hPa | 0 mm | - | 35 W/m² | - |
| 1777806282 | 3.89° C | 95% | 1012.8 hPa | 0 mm | - | 30 W/m² | - |
| 1777805978 | 3.89° C | 95% | 1012.8 hPa | 0 mm | - | 27 W/m² | - |
| 1777805675 | 3.89° C | 95% | 1012.8 hPa | 0 mm | - | 14 W/m² | - |
| 1777805373 | 3.89° C | 95% | 1013.1 hPa | 0 mm | - | 10 W/m² | - |
| 1777805071 | 3.89° C | 95% | 1012.8 hPa | 0 mm | - | 7 W/m² | - |
| 1777804768 | 3.89° C | 95% | 1012.8 hPa | 0 mm | - | 6 W/m² | - |
* Rain latest hour (hover to see other rain measurements)
** Current wind speed in m/s (hover to see current wind gust speed)